Waarnemingen

Advertentie
Mijn weer
Lyon/Bron, Frankrijk (7480): temperatuur & dauwpunt: 17.09.2019 07:00:00 - 23.09.2019 07:00:00 (CEST)Lyon/Bron, Frankrijk (7480): temperatuur 5cm: 17.09.2019 07:00:00 - 23.09.2019 07:00:00 (CEST)Lyon/Bron, Frankrijk (7480): temperatuur -20cm: 17.09.2019 07:00:00 - 23.09.2019 07:00:00 (CEST)Lyon/Bron, Frankrijk (7480): windsnelheid & windstoten: 17.09.2019 07:00:00 - 23.09.2019 07:00:00 (CEST)Lyon/Bron, Frankrijk (7480): windrichting: 17.09.2019 07:00:00 - 23.09.2019 07:00:00 (CEST)Lyon/Bron, Frankrijk (7480): luchtdruk: 17.09.2019 07:00:00 - 23.09.2019 07:00:00 (CEST)Lyon/Bron, Frankrijk (7480): zicht: 17.09.2019 07:00:00 - 23.09.2019 07:00:00 (CEST)Lyon/Bron, Frankrijk (7480): Zonneschijnduur: 17.09.2019 07:00:00 - 23.09.2019 07:00:00 (CEST)Lyon/Bron, Frankrijk (7480): neerslag: 17.09.2019 07:00:00 - 23.09.2019 07:00:00 (CEST)
Datum & Tijd tt [°C] td [°C] tt 5cm [°C] tt -20cm [°C] ff [km/u] ff [kn] fx [km/u] fx [kn] dd ppp [hPa] vv [km] sd [min] rr [mm]
23.09.2019 07:00:00 13,8 13,3 10,8 22,2 5 3 12 7 Z 1018,3 8 0 0,0
23.09.2019 06:00:00 14,1 13,5 11,7 22,4 2 1 5 3 Z 1017,9 25 0 0,0
23.09.2019 05:00:00 14,4 13,3 12,4 22,5 0 0 6 3 N 1017,6 55 0 0,0
23.09.2019 04:00:00 15,1 14,1 14,5 22,7 4 2 8 4 Z 1017,4 60 0 0,0
23.09.2019 03:00:00 15,1 14,0 14,4 22,9 5 3 9 5 ZZW 1017,5 60 0 0,0
23.09.2019 02:00:00 15,3 14,2 15,0 23,0 5 3 10 5 Z 1017,6 60 0 0,0
23.09.2019 01:00:00 15,3 14,2 14,9 23,2 6 3 11 6 Z 1017,4 60 0 0,0
23.09.2019 00:00:00 15,4 14,4 14,8 23,3 6 3 14 8 ZO 1017,0 60 0 0,0
22.09.2019 23:00:00 15,4 14,3 14,8 23,5 6 3 14 8 O 1016,5 60 0 0,6
22.09.2019 22:00:00 15,6 14,5 14,7 23,6 5 3 15 8 OZO 1015,8 4,2 0 1,0
22.09.2019 21:00:00 15,5 14,2 14,9 23,6 9 5 13 7 N 1014,5 25 0 3,3
22.09.2019 20:00:00 15,9 14,1 15,0 23,5 13 7 38 20 W 1013,8 4,8 0 3,6
22.09.2019 19:00:00 18,6 13,5 17,9 23,4 27 15 54 29 NW 1011,8 36 0 0,0
22.09.2019 18:00:00 23,9 14,3 23,7 23,2 26 14 46 25 Z 1010,1 55 8 0,0
22.09.2019 17:00:00 26,5 14,6 27,5 23,0 33 18 53 29 Z 1008,8 33 24 0,0
22.09.2019 16:00:00 26,3 14,1 27,9 22,7 31 17 51 28 Z 1008,6 24 33 0,0
22.09.2019 15:00:00 26,5 14,6 29,1 22,5 32 17 50 27 Z 1008,7 27 3 0,0
22.09.2019 14:00:00 26,7 14,1 30,9 22,3 34 19 52 28 Z 1009,0 25 58 0,0
22.09.2019 13:00:00 26,5 14,3 29,5 22,2 31 17 46 25 Z 1009,5 28 57 0,0
22.09.2019 12:00:00 25,0 14,5 29,5 22,2 29 16 45 25 Z 1010,3 32 60 0,0
22.09.2019 11:00:00 23,8 14,5 27,0 22,3 23 12 41 22 Z 1010,9 20 60 0,0
22.09.2019 10:00:00 22,2 14,6 23,6 22,4 13 7 27 15 Z 1011,3 41 60 0,0
22.09.2019 09:00:00 19,9 14,0 18,0 22,5 12 7 25 14 ZO 1011,4 46 24 0,0
22.09.2019 08:00:00 18,4 13,9 17,3 22,5 14 7 23 13 ZZO 1011,3 51 0 0,0
22.09.2019 07:00:00 18,8 13,9 17,8 22,7 14 8 36 19 ZO 1011,3 43 0 0,0
22.09.2019 06:00:00 18,8 13,9 16,3 22,8 12 7 22 12 ZO 1011,4 46 0 0,0
22.09.2019 05:00:00 19,0 13,8 17,7 22,9 5 3 27 15 OZO 1011,7 54 0 0,0
22.09.2019 04:00:00 19,5 13,7 18,6 23,0 11 6 27 15 ZZO 1011,7 54 0 0,0
22.09.2019 03:00:00 19,7 13,8 18,7 23,1 14 8 21 12 ZO 1012,1 51 0 0,0
22.09.2019 02:00:00 19,5 14,1 19,0 23,1 9 5 14 8 OZO 1012,0 48 0 0,0
22.09.2019 01:00:00 19,8 13,9 19,2 23,2 9 5 19 10 OZO 1012,0 52 0 0,0
22.09.2019 00:00:00 20,1 14,0 19,4 23,3 10 6 22 12 ZZO 1012,3 50 0 0,0
21.09.2019 23:00:00 20,2 13,9 19,7 23,3 11 6 21 12 ZZO 1012,5 52 0 0,0
21.09.2019 22:00:00 21,1 13,8 20,4 23,3 10 5 22 12 ZO 1012,6 57 0 0,0
21.09.2019 21:00:00 22,1 14,0 21,6 23,3 13 7 33 18 ZZO 1013,0 60 0 0,0
21.09.2019 20:00:00 22,6 13,6 22,2 23,2 14 8 50 27 Z 1013,0 60 0 0,0
21.09.2019 19:00:00 24,0 12,3 23,7 23,0 24 13 46 25 Z 1013,0 60 0 0,0
21.09.2019 18:00:00 25,0 11,9 25,4 22,8 21 11 45 24 Z 1012,5 59 0 0,0
21.09.2019 17:00:00 26,8 10,9 28,2 22,6 29 16 48 26 ZZW 1012,8 50 29 0,0
21.09.2019 16:00:00 28,7 11,3 29,0 22,3 25 13 43 23 Z 1012,9 54 29 0,0
21.09.2019 15:00:00 26,3 11,2 28,1 22,1 18 10 53 28 ZZO 1014,1 36 8 0,0
21.09.2019 14:00:00 27,1 11,2 30,5 21,9 29 16 55 30 Z 1015,0 25 57 0,0
21.09.2019 13:00:00 26,9 11,0 29,5 21,8 32 18 52 28 Z 1015,7 31 60 0,0
21.09.2019 12:00:00 25,2 10,3 28,2 21,8 30 16 51 28 Z 1016,4 39 60 0,0
21.09.2019 11:00:00 23,4 10,8 25,8 21,9 20 11 33 18 ZZO 1017,1 47 60 0,0
21.09.2019 10:00:00 21,6 11,0 22,6 22,0 17 9 28 15 ZO 1017,6 53 60 0,0
21.09.2019 09:00:00 19,2 11,7 14,7 22,2 11 6 21 12 OZO 1017,6 49 51 0,0
21.09.2019 08:00:00 15,2 11,6 13,8 22,3 11 6 18 10 O 1018,0 39 0 0,0
21.09.2019 07:00:00 15,5 11,5 12,6 22,5 14 7 18 10 O 1018,0 39 0 0,0
21.09.2019 06:00:00 16,1 12,3 13,0 22,6 9 5 19 10 ZO 1018,2 43 0 0,0
21.09.2019 05:00:00 17,0 12,1 15,7 22,7 8 5 14 7 O 1018,3 41 0 0,0
21.09.2019 04:00:00 18,0 12,9 14,2 22,9 6 3 15 8 NO 1018,4 42 0 0,0
21.09.2019 03:00:00 19,5 13,0 17,5 23,0 13 7 24 13 ZO 1018,3 47 0 0,0
21.09.2019 02:00:00 19,5 13,2 14,3 23,1 14 8 23 13 ZO 1018,3 43 0 0,0
21.09.2019 01:00:00 18,1 12,1 14,0 23,2 3 2 11 6 NNO 1018,4 27 0 0,0
21.09.2019 00:00:00 19,7 12,9 15,9 23,3 8 5 13 7 OZO 1018,4 40 0 0,0
20.09.2019 23:00:00 20,0 12,5 16,5 23,3 8 4 12 7 OZO 1018,1 43 0 0,0
20.09.2019 22:00:00 21,3 13,0 19,0 23,3 8 4 21 12 OZO 1017,9 20 0 0,0
20.09.2019 21:00:00 22,4 12,3 20,6 23,2 11 6 17 9 O 1017,7 49 0 0,0
20.09.2019 20:00:00 25,0 11,5 23,8 23,0 9 5 20 11 ZO 1017,1 18 0 0,0
20.09.2019 19:00:00 27,1 11,6 28,2 22,7 11 6 22 12 ZO 1017,0 56 51 0,0
20.09.2019 18:00:00 28,6 11,6 32,4 22,3 11 6 22 12 ZZO 1017,1 45 60 0,0
20.09.2019 17:00:00 28,4 11,9 31,1 22,0 8 4 17 9 ZW 1017,5 49 60 0,0
20.09.2019 16:00:00 27,5 11,1 33,6 21,6 6 3 23 12 ZW 1018,4 30 60 0,0
20.09.2019 15:00:00 25,3 9,6 30,9 21,4 8 5 19 10 NNW 1019,5 60 60 0,0
20.09.2019 14:00:00 23,3 8,2 30,1 21,2 11 6 22 12 NW 1020,5 19 60 0,0
20.09.2019 13:00:00 21,2 7,8 26,9 21,1 4 2 18 10 WNW 1021,6 60 60 0,0
20.09.2019 12:00:00 19,2 6,6 23,8 21,1 8 5 17 9 O 1022,3 30 60 0,0
20.09.2019 11:00:00 16,1 5,7 21,1 21,3 8 4 15 8 N 1023,2 53 60 0,0
20.09.2019 10:00:00 14,7 4,9 18,8 21,4 5 3 11 6 N 1023,3 47 60 0,0
20.09.2019 09:00:00 12,4 5,3 8,9 21,6 3 2 7 4 NNW 1023,3 40 45 0,0
20.09.2019 08:00:00 9,6 4,8 6,0 21,8 4 2 5 3 ONO 1023,0 16 0 0,0
20.09.2019 07:00:00 9,7 4,3 6,3 22,0 4 2 8 4 ZZO 1022,8 55 0 0,0
20.09.2019 06:00:00 10,7 3,9 7,9 22,2 4 2 11 6 NNO 1022,6 20 0 0,0
20.09.2019 05:00:00 11,1 4,3 6,7 22,4 6 3 14 8 N 1023,0 60 0 0,0
20.09.2019 04:00:00 11,9 4,4 8,0 22,6 0 0 13 7 N 1022,9 60 0 0,0
20.09.2019 03:00:00 13,3 4,7 10,8 22,8 9 5 12 7 N 1023,0 60 0 0,0
20.09.2019 02:00:00 14,0 4,8 12,3 23,0 7 4 16 8 N 1023,1 60 0 0,0
20.09.2019 01:00:00 14,7 4,7 12,0 23,2 12 7 17 9 NNW 1022,7 57 0 0,0
20.09.2019 00:00:00 15,7 4,4 13,8 23,3 12 7 19 10 NNW 1022,5 59 0 0,0
19.09.2019 23:00:00 16,7 3,7 14,7 23,3 10 6 20 11 NNW 1022,0 60 0 0,0
19.09.2019 22:00:00 17,6 3,5 16,3 23,5 13 7 25 13 NNW 1021,7 60 0 0,0
19.09.2019 21:00:00 18,7 2,9 17,2 23,4 13 7 29 16 NNW 1021,0 60 0 0,0
19.09.2019 20:00:00 20,0 2,3 18,5 23,3 15 8 29 16 NNW 1020,3 20 4 0,0
19.09.2019 19:00:00 21,8 3,0 23,2 23,1 20 11 35 19 N 1019,9 44 60 0,0
19.09.2019 18:00:00 22,9 4,9 27,0 22,8 24 13 36 19 NNW 1019,7 46 60 0,0
19.09.2019 17:00:00 23,1 6,8 26,0 22,5 21 12 35 19 NNW 1019,7 50 60 0,0
19.09.2019 16:00:00 22,5 7,5 27,7 22,3 18 10 33 18 NNW 1020,0 47 60 0,0
19.09.2019 15:00:00 21,7 7,9 27,0 22,1 19 10 30 16 N 1020,6 53 60 0,0
19.09.2019 14:00:00 20,1 7,5 28,6 21,9 17 9 28 15 NNW 1021,1 3,4 60 0,0
19.09.2019 13:00:00 18,5 6,7 26,4 21,9 14 7 38 21 N 1021,6 51 60 0,0
19.09.2019 12:00:00 17,2 6,1 25,3 22,0 17 9 29 16 NNW 1021,9 60 60 0,0
19.09.2019 11:00:00 15,4 5,3 21,5 22,1 13 7 29 16 NNW 1021,9 56 60 0,0
19.09.2019 10:00:00 13,8 4,9 17,1 22,3 16 9 25 14 NNW 1022,0 51 60 0,0
19.09.2019 09:00:00 12,7 4,4 11,4 22,5 18 10 31 17 NNW 1021,9 58 52 0,0
19.09.2019 08:00:00 12,0 4,2 10,4 22,7 19 10 31 17 NNW 1021,6 46 0 0,0
19.09.2019 07:00:00 12,3 4,0 10,8 22,9 17 9 27 14 NNW 1021,3 60 0 0,0
19.09.2019 06:00:00 12,8 4,0 10,7 23,1 17 9 24 13 NNW 1020,8 60 0 0,0
19.09.2019 05:00:00 13,5 4,1 11,7 23,2 13 7 21 12 NNW 1020,9 60 0 0,0
19.09.2019 04:00:00 13,9 4,2 12,0 23,4 15 8 21 12 NNW 1020,9 60 0 0,0
19.09.2019 03:00:00 14,8 5,0 13,1 23,6 13 7 24 13 NNW 1020,8 60 0 0,0
19.09.2019 02:00:00 15,8 5,4 14,6 23,7 18 10 28 15 NNW 1020,5 60 0 0,0
19.09.2019 01:00:00 16,6 4,6 15,0 23,9 16 9 31 17 NNW 1020,2 60 0 0,0
19.09.2019 00:00:00 17,7 4,6 16,4 24,0 20 11 34 18 NNW 1020,1 60 0 0,0
18.09.2019 23:00:00 18,8 6,3 18,2 24,0 18 10 33 18 NNW 1019,7 60 0 0,0
18.09.2019 22:00:00 19,5 7,9 17,9 24,1 13 7 24 13 NNW 1019,1 60 0 0,0
18.09.2019 21:00:00 20,0 8,0 18,5 24,1 16 9 27 14 NNW 1018,7 60 0 0,0
18.09.2019 20:00:00 21,2 9,4 19,6 24,0 14 8 23 13 NNW 1018,2 58 4 0,0
18.09.2019 19:00:00 22,6 10,1 23,8 23,8 16 9 30 16 N 1017,6 43 58 0,0
18.09.2019 18:00:00 23,1 10,5 25,6 23,5 18 10 34 19 N 1017,6 60 45 0,0
18.09.2019 17:00:00 23,4 10,8 28,0 23,3 18 10 33 18 N 1017,7 20 58 0,0
18.09.2019 16:00:00 22,4 11,2 25,5 23,1 16 9 29 16 N 1018,2 52 24 0,0
18.09.2019 15:00:00 20,7 10,8 26,1 22,9 18 10 33 18 N 1018,7 40 41 0,0
18.09.2019 14:00:00 20,5 9,4 25,1 22,8 17 9 32 17 N 1018,7 40 58 0,0
18.09.2019 13:00:00 19,1 9,3 24,1 22,8 18 10 29 16 NNW 1018,9 44 42 0,0
18.09.2019 12:00:00 18,2 9,0 25,5 22,9 16 9 27 15 NW 1019,2 53 52 0,0
18.09.2019 11:00:00 16,9 8,8 19,5 23,0 11 6 19 10 N 1019,1 54 15 0,0
18.09.2019 10:00:00 15,7 8,4 16,7 23,1 14 8 28 15 N 1019,1 48 0 0,0
18.09.2019 09:00:00 15,5 8,5 14,7 23,3 16 8 25 13 N 1018,9 49 12 0,0
18.09.2019 08:00:00 15,1 8,6 14,3 23,5 16 9 27 15 N 1018,9 55 0 0,0
18.09.2019 07:00:00 15,7 9,4 14,6 23,6 14 7 29 16 NNW 1018,3 58 0 0,0
18.09.2019 06:00:00 16,2 10,1 15,0 23,8 13 7 22 12 NNW 1018,0 57 0 0,0
18.09.2019 05:00:00 16,9 10,3 15,6 24,0 10 6 22 12 NNW 1017,9 60 0 0,0
18.09.2019 04:00:00 17,2 9,9 16,0 24,1 11 6 27 14 N 1017,7 60 0 0,0
18.09.2019 03:00:00 18,0 10,1 16,5 24,3 17 9 30 16 NNW 1017,7 60 0 0,0
18.09.2019 02:00:00 19,0 11,3 17,4 24,4 23 12 34 19 NNW 1017,4 54 0 0,0
18.09.2019 01:00:00 19,2 11,7 17,2 24,5 15 8 32 17 NNW 1017,2 60 0 0,0
18.09.2019 00:00:00 20,2 12,7 18,9 24,6 18 10 32 17 NNW 1017,0 60 0 0,0
17.09.2019 23:00:00 21,0 13,2 19,5 24,7 20 11 29 16 NNW 1016,9 60 0 0,0
17.09.2019 22:00:00 22,3 12,5 20,5 24,7 15 8 26 14 N 1016,6 60 0 0,0
17.09.2019 21:00:00 23,0 11,1 20,4 24,7 11 6 20 11 N 1016,1 60 0 0,0
17.09.2019 20:00:00 24,6 11,2 22,4 24,5 13 7 26 14 N 1015,5 60 7 0,0
17.09.2019 19:00:00 26,6 10,3 28,0 24,2 18 10 30 16 N 1015,4 55 60 0,0
17.09.2019 18:00:00 28,0 9,3 33,1 24,0 18 10 34 18 N 1015,5 27 60 0,0
17.09.2019 17:00:00 28,5 7,7 34,1 23,6 19 11 32 17 N 1015,8 29 60 0,0
17.09.2019 16:00:00 29,3 4,7 36,9 23,3 15 8 30 16 N 1016,1 31 60 0,0
17.09.2019 15:00:00 28,4 7,6 37,6 23,0 18 10 31 17 N 1016,6 53 60 0,0
17.09.2019 14:00:00 27,9 7,7 36,7 22,9 15 8 29 16 NNW 1017,0 53 60 0,0
17.09.2019 13:00:00 26,6 8,1 36,0 22,9 16 9 26 14 N 1017,7 56 60 0,0
17.09.2019 12:00:00 25,5 8,9 33,8 22,9 14 7 23 12 N 1018,2 53 60 0,0
17.09.2019 11:00:00 23,3 8,6 28,6 23,0 10 5 23 12 N 1018,7 30 60 0,0
17.09.2019 10:00:00 21,4 8,0 25,3 23,1 16 8 24 13 N 1018,9 40 60 0,0
17.09.2019 09:00:00 19,6 8,3 16,0 23,3 8 4 14 8 NNO 1018,7 28 47 0,0
17.09.2019 08:00:00 17,9 7,6 14,2 23,4 7 4 13 7 NNO 1018,6 56 0 0,0
17.09.2019 07:00:00 18,7 7,5 12,5 23,6 3 2 13 7 NO 1018,3 60 0 0,0

tt = temperatuur
td = dauwpunt
tt 5cm = temperatuur 5cm
tt -20cm = temperatuur -20cm
ff = windsnelheid
fx = windstoten
dd = windrichting
ppp = luchtdruk
vv = zicht
sd = Zonneschijnduur
rr = neerslag

Weerstations in de omgeving